Temperature
17 17 18 17 17 17 17 17 17 17 17 17 17 17 17 17 17 16 16 16 16 16 16 16 16 16 16 16 16 16 16 16 16 16 16 16 16 15 15 15 15 15 15
17 17 17 17 17 17 17 17 17 17 17 17 17 17 17 17 17 16 16 16 16 16 16 16 16 16 16 16 16 16 16 16 16 16 16 15 16 15 15 15 15 15 15
17 17 17 17 17 17 17 17 17 17 17 17 17 17 17 17 16 16 16 16 16 16 16 16 16 16 16 16 16 16 16 16 16 16 15 15 15 15 15 15 15 15 15
17 16 16 16 16 16 16 17 17 17 16 17 17 17 17 17 16 16 16 16 16 16 16 16 16 16 16 16 16 16 16 16 16 15 14 14 14 15 15 15 15 15 15
16 16 16 16 16 16 16 16 16 16 16 16 16 16 16 16 16 16 16 16 16 16 16 16 16 16 16 16 16 16 16 16 15 15 14 14 14 15 15 15 15 15 15
16 16 16 16 16 16 16 16 16 16 16 16 16 16 16 16 16 16 16 16 16 16 16 16 16 15 16 16 16 15 15 15 15 14 14 14 14 15 15 15 14 14 14
16 16 16 16 16 16 16 16 16 16 16 16 16 16 16 16 16 16 16 16 16 16 16 16 16 15 15 15 15 15 15 15 14 14 14 14 14 15 15 14 14 14 14
15 15 16 16 16 16 16 16 16 16 16 16 16 16 16 16 16 16 16 16 16 16 15 15 15 15 15 15 15 15 15 15 15 14 14 14 14 14 14 14 14 14 14
15 15 15 15 16 16 16 16 16 16 16 16 16 16 16 16 16 16 16 16 16 15 15 15 15 15 15 15 15 15 15 15 14 14 14 14 14 14 14 14 14 14 14
15 15 15 15 15 15 15 15 16 16 16 15 16 16 15 15 15 15 15 15 15 15 15 15 15 15 15 15 15 15 15 15 14 14 14 14 14 14 14 14 14 14 14
14 15 15 15 15 15 15 15 15 15 15 15 15 15 15 15 15 15 15 15 15 15 15 15 15 15 15 15 15 15 15 14 14 14 14 14 14 14 14 14 14 14 14
14 14 15 15 15 15 15 15 15 15 15 15 15 15 15 15 15 15 15 15 15 15 15 15 15 15 15 14 14 14 14 14 14 14 14 14 14 14 14 14 14 14 13
13 14 14 14 15 15 15 14 15 15 15 15 15 15 15 15 15 15 15 15 15 15 14 15 14 14 14 14 14 14 14 14 14 14 14 14 14 14 14 14 14 13 13
13 13 14 14 14 14 14 14 14 14 15 15 15 15 14 14 14 14 14 14 14 14 14 14 14 14 14 14 14 14 14 14 14 14 14 14 14 14 14 14 13 13 13
12 13 13 13 14 14 14 14 14 14 14 14 14 14 14 14 14 14 14 14 14 14 14 14 14 14 14 14 14 14 14 13 13 13 13 14 14 14 13 13 13 13 13
12 12 13 13 13 14 14 14 14 14 14 14 14 14 14 14 14 14 14 14 14 14 14 14 14 14 14 14 13 13 13 13 13 13 13 13 13 13 13 13 13 13 13
12 12 12 13 13 13 13 13 13 14 14 14 14 14 14 14 14 14 14 14 14 14 14 14 13 13 13 13 13 13 13 13 13 13 13 13 13 13 13 13 13 12 12
11 12 12 12 13 13 13 13 13 13 13 13 13 13 14 14 13 13 13 13 13 13 13 13 13 13 13 13 13 13 13 13 13 13 13 13 13 13 12 12 12 12 12
11 11 12 12 12 12 12 12 12 12 13 13 13 13 13 13 13 13 13 13 13 13 13 13 13 13 13 13 12 12 12 12 12 12 12 12 12 12 12 12 12 12 12
11 11 11 11 12 12 12 12 12 12 12 12 13 13 13 13 13 13 13 13 13 13 13 13 13 12 12 12 12 12 12 12 12 12 12 12 12 12 11 11 11 11 11
10 10 10 11 11 11 11 11 11 11 12 12 12 13 12 13 13 12 12 12 12 12 12 12 12 12 12 12 11 11 11 11 11 11 11 11 11 11 11 11 11 11 11
9 10 10 10 10 11 11 11 11 11 11 11 12 12 12 12 12 12 12 12 12 12 12 12 12 11 11 11 11 10 10 11 11 11 10 11 11 11 11 11 11 10 10
9 9 9 9 10 10 10 10 10 10 11 11 11 11 11 11 11 12 12 12 12 12 12 12 12 11 11 11 11 10 10 11 10 10 10 10 10 10 10 10 10 10 10
8 9 9 9 9 10 10 10 10 10 10 10 10 11 11 11 11 11 11 11 11 11 11 11 11 11 11 10 10 10 10 10 9 9 10 10 10 10 10 10 10 10 10
8 8 8 9 9 9 9 10 9 10 10 10 10 10 10 10 11 11 11 11 11 11 11 11 11 11 10 10 10 9 9 9 9 9 9 9 9 9 9 9 9 9 9
7 8 8 8 9 9 9 9 9 9 9 9 9 9 10 10 10 10 10 10 10 10 10 10 10 10 10 10 9 9 9 8 8 8 8 8 8 9 9 9 9 9 9
Wind_Speed
2 6 12 14 15 15 15 16 16 16 17 17 17 17 16 16 15 14 14 14 14 14 14 13 14 14 14 14 14 14 15 14 14 14 14 14 14 13 13 11 10 12 13
2 7 12 14 16 16 15 15 16 16 16 17 17 17 17 16 15 15 15 14 14 14 14 14 14 14 14 14 14 14 14 14 14 13 13 13 13 12 12 11 11 11 12
1 6 12 14 15 16 15 15 15 16 17 17 17 17 17 16 16 15 14 14 14 14 14 14 14 14 14 13 13 13 13 13 12 10 8 10 11 11 11 11 11 11 11
1 5 9 12 15 16 15 15 15 16 17 17 16 17 17 16 16 15 14 14 14 14 14 14 14 13 13 12 12 12 11 11 10 6 6 8 9 10 9 9 9 9 9
1 5 8 11 14 15 15 15 16 16 16 16 16 17 17 16 16 16 15 14 13 13 13 13 13 13 12 12 11 11 10 9 7 4 7 7 8 9 8 8 8 8 7
1 4 8 10 12 14 16 16 16 16 16 16 16 17 17 16 16 16 15 14 14 13 13 13 13 12 11 11 10 10 9 8 7 6 6 6 7 8 7 7 6 6 6
1 3 7 10 10 12 15 16 16 16 16 16 16 16 17 16 16 16 15 14 14 13 13 13 12 12 10 10 10 9 8 6 4 5 5 5 6 7 6 6 5 4 4
2 3 5 9 9 11 14 16 16 16 16 16 16 16 16 16 16 16 15 15 14 14 13 13 12 11 10 9 9 9 7 5 4 4 4 4 6 5 5 4 4 3 3
2 3 4 8 10 11 12 15 15 16 16 16 15 16 15 16 16 16 16 15 15 14 13 13 12 11 10 9 8 8 7 5 4 3 3 4 5 5 4 3 3 2 2
3 3 4 6 8 9 11 14 15 15 15 16 15 15 15 15 15 16 16 15 15 14 13 13 12 10 9 9 9 8 7 6 5 4 4 4 5 5 4 4 3 3 2
4 3 4 5 7 8 9 11 14 15 15 15 15 15 15 14 15 15 15 15 14 14 13 13 12 11 9 9 9 9 8 6 5 4 4 4 5 5 5 5 4 4 3
6 5 5 6 6 7 7 8 10 12 13 14 13 14 14 12 12 12 14 15 15 14 13 12 12 11 10 8 9 9 7 6 5 5 4 5 6 6 6 6 5 5 5
7 6 6 6 7 7 6 7 7 8 10 12 13 14 12 11 10 11 11 12 13 13 12 12 12 10 9 7 7 8 7 6 5 5 5 6 7 7 7 7 7 6 6
8 8 7 7 6 7 7 6 7 6 7 8 11 13 11 8 8 9 8 10 11 11 10 10 9 10 9 9 9 8 8 7 6 6 5 7 8 8 8 8 8 8 8
9 8 8 7 8 7 7 6 7 7 7 8 10 12 12 9 8 8 7 9 10 10 10 9 9 9 8 8 8 8 8 8 8 7 6 8 9 9 9 9 10 10 9
9 8 7 8 8 8 7 7 7 7 7 8 9 11 12 10 9 8 8 8 9 10 10 9 9 8 7 7 7 9 9 9 9 8 7 8 10 10 10 11 11 11 11
8 7 7 8 8 8 7 8 6 6 7 7 7 10 12 11 10 9 8 8 8 10 10 9 9 8 6 7 8 8 8 9 9 9 9 8 8 11 12 12 12 12 12
7 7 6 6 7 7 7 6 5 6 6 6 6 7 11 12 11 9 8 8 9 9 8 7 7 7 7 7 7 7 7 7 9 9 9 8 8 9 10 12 12 13 13
6 6 6 6 6 7 6 5 4 4 4 4 5 4 7 10 11 9 8 8 9 7 7 7 7 7 7 7 7 7 7 7 8 8 9 9 9 9 9 9 12 13 13
4 4 5 4 4 5 5 4 4 4 3 3 3 4 5 7 9 8 7 8 8 7 7 7 8 7 7 6 6 7 7 8 8 8 9 9 9 10 10 10 10 10 13
2 2 3 3 3 3 4 4 4 4 3 3 3 3 4 4 6 7 6 7 7 7 8 8 7 7 6 5 4 5 7 8 9 8 8 8 9 10 11 11 10 10 9
2 2 2 2 2 2 3 3 3 3 3 2 2 2 3 3 4 5 7 7 7 7 8 8 7 6 6 5 4 4 4 6 7 8 8 8 9 9 10 11 11 11 10
3 2 1 1 1 2 3 3 2 2 2 2 2 2 2 3 4 4 5 6 7 7 7 8 8 9 7 7 7 5 4 6 5 7 9 9 9 8 9 9 12 12 12
3 2 2 1 1 1 2 3 4 4 3 3 3 2 3 3 4 4 5 5 6 6 7 8 8 7 7 7 7 7 7 5 5 5 6 8 9 10 10 8 10 11 12
4 3 3 2 2 1 2 2 3 3 3 2 2 2 2 2 2 3 4 4 5 5 7 7 8 8 8 8 7 7 7 6 8 7 8 7 7 9 9 9 8 9 11
4 4 3 3 3 2 2 2 3 3 3 3 2 2 2 1 2 2 3 3 4 5 6 6 7 9 8 9 8 8 8 7 7 7 8 8 9 8 8 7 8 8 9
Wind_Direction
201 182 167 175 169 166 163 160 157 157 158 158 157 155 154 153 150 147 144 142 139 138 134 131 128 123 119 115 111 108 105 102 98 94 91 88 88 87 84 81 81 82 76
266 187 168 178 173 169 165 162 160 160 160 161 160 160 159 157 155 151 147 145 144 141 138 134 131 125 120 115 112 110 108 105 102 100 101 98 92 89 85 75 68 79 77
279 180 170 176 173 170 168 164 161 162 163 164 164 163 162 160 158 155 151 150 148 144 140 137 132 128 123 119 117 116 114 111 109 113 126 106 99 94 91 86 84 83 80
277 177 170 170 174 172 170 167 164 165 166 167 168 167 166 164 162 158 155 153 151 147 144 139 134 131 128 126 123 122 121 119 118 143 117 102 103 101 98 94 90 87 84
210 178 163 164 174 174 174 172 170 168 170 171 171 170 169 168 166 162 159 157 153 149 145 141 138 137 135 132 129 126 126 128 138 151 107 106 105 105 102 97 93 90 87
201 182 167 167 173 175 176 177 176 174 174 175 175 174 172 171 169 165 163 160 155 152 149 145 143 142 140 139 137 134 132 140 166 124 117 115 110 110 107 103 99 93 89
247 196 177 171 173 174 177 178 179 181 181 179 179 179 177 174 171 168 163 160 158 157 155 153 151 149 147 148 145 142 142 163 158 133 129 124 117 121 121 113 108 102 96
274 216 191 180 179 178 181 180 183 185 185 184 182 182 181 177 174 169 165 163 162 163 162 159 158 156 155 155 153 152 156 180 162 149 145 137 129 140 132 125 122 122 117
287 234 210 196 191 185 184 181 182 186 186 184 183 183 182 179 175 171 168 167 167 167 166 164 163 162 163 162 160 160 168 195 188 166 163 154 146 156 158 159 159 159 157
283 246 227 212 207 201 196 188 186 186 189 188 186 182 180 178 178 174 173 171 171 171 170 169 168 167 168 168 166 166 176 204 198 184 189 162 164 181 188 195 198 199 204
289 260 239 224 217 210 205 193 190 188 190 190 189 182 182 188 188 182 181 172 174 175 174 174 173 172 173 174 172 173 189 211 203 208 207 166 193 202 207 213 215 221 227
285 268 244 232 224 217 209 199 198 196 195 199 198 193 196 195 192 188 179 175 177 178 178 178 178 177 187 187 180 185 207 216 215 217 209 189 214 217 218 221 224 230 235
277 272 250 238 228 220 213 206 199 198 197 202 202 198 197 194 191 188 183 182 185 185 188 184 186 193 199 197 197 207 218 220 224 224 213 203 223 227 227 229 232 236 239
271 268 258 240 232 224 216 210 204 200 197 199 200 199 196 193 193 190 190 190 192 194 196 194 198 200 205 207 209 216 220 225 231 232 222 210 229 236 234 234 237 240 242
262 264 265 244 232 225 220 212 206 203 201 203 200 201 199 195 194 192 194 192 195 195 196 198 203 204 210 215 218 223 227 231 235 236 231 217 229 240 241 238 238 240 243
258 259 264 251 231 223 221 215 208 203 197 199 199 200 200 198 196 193 195 195 197 198 199 203 206 209 214 219 225 229 233 235 238 239 242 231 228 235 242 244 244 246 245
259 257 260 247 228 219 220 218 207 201 199 200 197 202 202 200 199 197 198 197 199 200 202 205 209 213 218 223 229 233 236 239 241 242 243 244 238 233 237 244 247 250 251
267 257 260 243 224 214 214 212 204 199 199 200 192 198 203 200 197 196 198 200 199 198 202 205 209 215 220 227 232 234 238 240 244 245 244 244 245 245 240 241 246 249 252
272 261 257 245 228 215 207 197 190 193 198 195 185 192 204 203 199 197 201 201 197 198 203 205 209 215 221 227 234 239 242 242 244 245 246 247 247 248 250 245 243 247 251
279 268 258 244 227 209 197 184 180 186 192 183 180 185 200 203 201 200 202 202 198 199 203 205 209 215 224 227 237 243 246 247 245 243 247 246 244 246 250 253 249 247 246
317 280 256 239 231 201 185 186 190 192 185 180 177 171 188 199 199 198 200 201 201 203 204 206 208 212 221 221 233 249 253 248 245 244 244 246 245 246 251 250 250 251 249
342 313 271 237 230 201 196 196 194 185 178 167 174 171 189 197 199 202 205 205 202 204 207 207 206 210 216 208 218 236 251 249 240 246 246 245 248 247 248 249 250 250 254
351 337 308 294 239 194 175 160 153 161 179 190 189 192 200 200 204 204 211 207 208 209 210 211 208 210 214 212 215 220 236 246 267 241 242 244 245 248 251 250 251 251 252
351 354 352 23 58 141 153 158 173 185 194 206 198 196 198 202 210 210 215 215 216 217 216 215 213 214 214 218 223 231 244 253 247 255 247 243 249 253 254 254 253 252 252
10 16 15 36 60 89 130 156 178 181 187 191 182 193 205 207 212 224 226 227 223 224 225 221 217 217 218 222 224 228 237 251 248 251 263 262 260 257 256 256 253 252 251
20 25 27 47 51 62 104 148 169 165 173 176 180 193 207 217 219 225 226 225 225 229 233 232 228 223 222 226 230 233 236 237 243 248 261 264 266 266 258 255 255 253 250
Height
1512 1512 1513 1515 1517 1519 1521 1523 1525 1526 1528 1529 1530 1532 1533 1534 1535 1536 1537 1537 1538 1539 1539 1540 1541 1541 1541 1541 1542 1542 1542 1542 1542 1542 1542 1542 1542 1542 1542 1542 1542 1541 1540
1511 1512 1512 1515 1517 1519 1521 1523 1525 1527 1528 1530 1531 1532 1533 1535 1536 1537 1538 1539 1539 1540 1541 1541 1542 1542 1542 1543 1543 1543 1544 1544 1544 1544 1544 1544 1544 1543 1543 1543 1542 1542 1541
1510 1511 1512 1514 1517 1519 1521 1523 1525 1527 1528 1530 1531 1533 1534 1535 1536 1537 1538 1539 1540 1541 1542 1542 1543 1543 1544 1544 1544 1545 1545 1545 1545 1546 1546 1546 1545 1545 1544 1544 1543 1543 1542
1510 1511 1512 1514 1517 1519 1521 1523 1525 1527 1529 1530 1532 1533 1534 1536 1537 1538 1539 1540 1541 1542 1543 1544 1544 1545 1545 1545 1546 1546 1546 1546 1547 1547 1548 1548 1547 1546 1545 1545 1544 1544 1543
1510 1511 1512 1514 1516 1518 1520 1523 1525 1527 1528 1530 1532 1533 1534 1536 1537 1538 1540 1541 1542 1543 1543 1544 1545 1546 1546 1546 1547 1547 1547 1548 1548 1548 1549 1548 1548 1547 1546 1546 1545 1545 1544
1510 1511 1512 1514 1516 1518 1520 1522 1524 1526 1528 1530 1531 1533 1534 1536 1537 1538 1540 1541 1542 1543 1544 1545 1545 1546 1547 1547 1548 1548 1548 1549 1549 1549 1549 1549 1548 1547 1547 1546 1546 1545 1545
1510 1511 1512 1513 1515 1517 1519 1521 1523 1525 1527 1529 1531 1533 1534 1535 1537 1538 1539 1541 1542 1543 1544 1545 1546 1547 1547 1548 1548 1549 1549 1549 1550 1550 1549 1549 1549 1548 1547 1547 1546 1546 1545
1509 1510 1511 1512 1514 1516 1518 1520 1522 1524 1526 1528 1530 1532 1533 1535 1536 1538 1539 1541 1542 1543 1544 1545 1546 1547 1547 1548 1548 1549 1549 1550 1550 1550 1550 1550 1549 1548 1548 1547 1547 1546 1545
1508 1509 1510 1511 1513 1515 1517 1519 1521 1523 1525 1527 1529 1531 1533 1534 1536 1537 1539 1540 1541 1543 1544 1545 1546 1547 1547 1548 1549 1549 1549 1550 1551 1550 1550 1549 1549 1548 1548 1547 1547 1546 1545
1506 1507 1508 1509 1511 1513 1515 1517 1519 1521 1524 1526 1528 1530 1531 1533 1535 1537 1538 1539 1541 1542 1543 1544 1545 1546 1547 1548 1548 1549 1549 1550 1550 1550 1550 1549 1548 1548 1547 1547 1546 1546 1545
1505 1505 1506 1508 1509 1511 1513 1515 1517 1519 1522 1524 1526 1528 1530 1532 1533 1535 1536 1538 1540 1541 1542 1543 1545 1546 1546 1547 1548 1548 1549 1549 1550 1549 1549 1548 1548 1547 1547 1546 1546 1545 1544
1502 1503 1504 1505 1507 1508 1510 1512 1514 1517 1519 1521 1523 1525 1528 1530 1531 1533 1534 1536 1538 1540 1541 1542 1543 1545 1546 1546 1547 1547 1548 1548 1548 1548 1547 1547 1546 1546 1545 1545 1544 1544 1543
1499 1500 1501 1502 1504 1505 1507 1509 1511 1513 1516 1518 1520 1523 1525 1527 1529 1531 1532 1534 1536 1538 1539 1541 1542 1543 1544 1545 1545 1546 1546 1546 1546 1546 1546 1545 1545 1544 1544 1543 1543 1542 1541
1496 1497 1498 1499 1500 1502 1504 1506 1508 1510 1512 1514 1517 1519 1522 1524 1526 1528 1529 1531 1533 1535 1537 1538 1540 1541 1542 1543 1543 1544 1544 1544 1544 1544 1543 1543 1543 1542 1542 1541 1540 1540 1539
1492 1493 1495 1496 1497 1498 1500 1502 1504 1506 1508 1511 1513 1516 1518 1520 1522 1524 1527 1528 1531 1533 1534 1536 1537 1539 1540 1540 1541 1541 1542 1542 1542 1542 1541 1540 1540 1540 1539 1539 1538 1537 1537
1489 1489 1490 1492 1493 1495 1496 1498 1500 1502 1504 1507 1509 1511 1514 1516 1519 1521 1523 1525 1528 1530 1531 1533 1534 1536 1537 1537 1538 1539 1539 1539 1539 1539 1538 1538 1537 1537 1536 1536 1535 1535 1534
1485 1486 1486 1487 1489 1490 1492 1494 1496 1498 1500 1503 1505 1507 1510 1512 1515 1517 1519 1522 1524 1526 1528 1530 1532 1533 1534 1534 1535 1535 1536 1536 1536 1536 1535 1535 1534 1533 1533 1532 1531 1531 1530
1481 1482 1483 1483 1484 1486 1488 1489 1491 1494 1496 1498 1501 1503 1506 1508 1511 1513 1515 1518 1520 1523 1524 1526 1528 1529 1530 1531 1531 1532 1532 1532 1532 1532 1532 1531 1530 1530 1529 1528 1527 1527 1526
1478 1478 1478 1479 1480 1482 1484 1485 1487 1490 1492 1494 1496 1499 1501 1504 1507 1509 1511 1514 1516 1518 1520 1522 1523 1525 1526 1527 1527 1528 1528 1528 1528 1528 1527 1527 1526 1526 1525 1524 1523 1523 1522
1474 1474 1475 1476 1476 1478 1480 1482 1483 1486 1488 1490 1492 1495 1497 1500 1503 1505 1507 1510 1512 1514 1516 1517 1519 1521 1522 1523 1524 1524 1524 1524 1523 1523 1523 1523 1522 1521 1521 1520 1519 1518 1517
1470 1471 1471 1472 1473 1474 1476 1478 1480 1482 1484 1486 1489 1491 1494 1496 1498 1501 1503 1506 1508 1510 1511 1513 1515 1516 1518 1519 1520 1519 1519 1519 1518 1518 1518 1518 1517 1517 1516 1515 1515 1513 1512
1467 1467 1468 1469 1470 1471 1473 1475 1477 1479 1481 1483 1485 1487 1490 1492 1494 1497 1499 1501 1503 1505 1507 1509 1510 1511 1513 1514 1515 1515 1514 1515 1513 1513 1512 1512 1512 1512 1511 1510 1509 1508 1507
1465 1465 1466 1466 1467 1469 1471 1472 1474 1476 1478 1481 1483 1484 1487 1488 1490 1492 1495 1497 1499 1500 1502 1503 1505 1506 1507 1509 1510 1511 1510 1508 1508 1506 1506 1506 1506 1506 1505 1504 1504 1502 1501
1464 1464 1464 1464 1465 1466 1468 1470 1471 1473 1475 1477 1479 1481 1483 1485 1487 1489 1491 1492 1494 1495 1496 1498 1500 1501 1502 1503 1504 1505 1506 1505 1504 1501 1500 1500 1500 1500 1499 1498 1497 1496 1495
1463 1462 1462 1463 1464 1464 1466 1467 1469 1471 1473 1475 1476 1478 1479 1481 1483 1485 1486 1487 1489 1490 1492 1493 1494 1495 1496 1497 1498 1498 1499 1499 1499 1497 1494 1493 1493 1493 1493 1492 1491 1490 1489
1462 1461 1461 1461 1462 1463 1464 1466 1467 1469 1470 1472 1473 1475 1476 1478 1479 1481 1482 1483 1484 1485 1486 1487 1488 1489 1490 1491 1492 1492 1492 1493 1493 1492 1490 1487 1486 1485 1485 1485 1484 1483 1482